When you browse on this site, cookies collect data to enhance your experience and personalize the content and advertising you see.
Visit our Privacy Policy to learn more. By continuing to use the site, you agree to this use of cookies and data.
  • In Czech Republic
  • List of Countries
  • For 7 days
  • Water Temperature
  • Satellite Maps
  • Weather Map
  • Weather Widgets
  • user-avatar
    Login

    Hourly Weather Malanje

    Today, 14 December, Friday

    Time Temperature Precipitation Wind Pressure Humidity
    00:00 +18°C° 0.1 mm 0 mps 666 mmHg 95%
    01:00 +18°C° 0 mm 0 mps 666 mmHg 95%
    02:00 +18°C° 0.1 mm 0 mps 666 mmHg 95%
    03:00 +18°C° 0.1 mm 0 mps 666 mmHg 96%
    04:00 +17°C° 0.1 mm 0 mps 666 mmHg 96%
    05:00 +18°C° 0.2 mm 0 mps 667 mmHg 95%
    06:00 +19°C° 0.2 mm 0 mps 667 mmHg 95%
    07:00 +19°C° 0.2 mm 0 mps 667 mmHg 95%
    08:00 +21°C° 0.1 mm 0 mps 668 mmHg 87%
    09:00 +26°C° 0.1 mm 1 mps 668 mmHg 79%
    10:00 +28°C° 0.1 mm 1 mps 668 mmHg 72%
    11:00 +28°C° 0.9 mm 1 mps 668 mmHg 71%
    12:00 +29°C° 0.9 mm 1 mps 667 mmHg 70%
    13:00 +29°C° 0.9 mm 1 mps 667 mmHg 69%
    14:00 +29°C° 1.2 mm 1 mps 666 mmHg 73%
    15:00 +28°C° 1.2 mm 1 mps 666 mmHg 76%
    16:00 +27°C° 1.2 mm 1 mps 665 mmHg 79%
    17:00 +25°C° 0.8 mm 1 mps 665 mmHg 84%
    18:00 +23°C° 0.8 mm 1 mps 665 mmHg 88%
    19:00 +21°C° 0.8 mm 1 mps 665 mmHg 93%
    20:00 +21°C° 0.6 mm 1 mps 665 mmHg 93%
    21:00 +21°C° 0.6 mm 1 mps 666 mmHg 94%
    22:00 +20°C° 0.6 mm 1 mps 666 mmHg 95%
    23:00 +20°C° 0.3 mm 1 mps 666 mmHg 96%

    Tomorrow, 15 December, Saturday

    Time Temperature Precipitation Wind Pressure Humidity
    00:00 +20°C° 0.3 mm 1 mps 666 mmHg 97%
    01:00 +19°C° 0.3 mm 2 mps 666 mmHg 98%
    02:00 +19°C° 0.1 mm 2 mps 666 mmHg 98%
    03:00 +19°C° 0.1 mm 2 mps 666 mmHg 98%
    04:00 +19°C° 0.1 mm 2 mps 666 mmHg 99%
    05:00 +19°C° 0 mm 2 mps 666 mmHg 98%
    06:00 +19°C° 0 mm 2 mps 667 mmHg 98%
    07:00 +19°C° 0 mm 2 mps 667 mmHg 97%
    08:00 +20°C° 0.1 mm 2 mps 667 mmHg 94%
    09:00 +21°C° 0.1 mm 2 mps 668 mmHg 91%
    10:00 +23°C° 0.1 mm 2 mps 668 mmHg 87%
    11:00 +24°C° 0.2 mm 2 mps 668 mmHg 82%
    12:00 +26°C° 0.2 mm 3 mps 667 mmHg 77%
    13:00 +27°C° 0.2 mm 3 mps 667 mmHg 72%
    14:00 +27°C° 0.4 mm 3 mps 666 mmHg 74%
    15:00 +27°C° 0.4 mm 3 mps 666 mmHg 76%
    16:00 +26°C° 0.4 mm 3 mps 665 mmHg 78%
    17:00 +25°C° 1.8 mm 2 mps 665 mmHg 83%
    18:00 +23°C° 1.8 mm 2 mps 666 mmHg 89%
    19:00 +21°C° 1.8 mm 2 mps 666 mmHg 94%
    20:00 +21°C° 2.3 mm 1 mps 667 mmHg 95%
    21:00 +21°C° 2.3 mm 1 mps 667 mmHg 95%
    22:00 +21°C° 2.3 mm 1 mps 668 mmHg 96%
    23:00 +21°C° 1.3 mm 1 mps 667 mmHg 97%

    Day after tomorrow, 16 December, Sunday

    Time Temperature Precipitation Wind Pressure Humidity
    00:00 +20°C° 1.3 mm 1 mps 667 mmHg 97%
    01:00 +19°C° 1.3 mm 2 mps 667 mmHg 98%
    02:00 +20°C° 1.2 mm 1 mps 666 mmHg 98%
    03:00 +20°C° 1.2 mm 1 mps 666 mmHg 98%
    04:00 +20°C° 1.2 mm 1 mps 666 mmHg 99%
    05:00 +20°C° 1.2 mm 1 mps 666 mmHg 98%
    06:00 +20°C° 1.2 mm 1 mps 667 mmHg 98%
    07:00 +20°C° 1.2 mm 1 mps 667 mmHg 98%
    08:00 +21°C° 0.6 mm 1 mps 667 mmHg 95%
    09:00 +22°C° 0.6 mm 1 mps 667 mmHg 93%
    10:00 +23°C° 0.6 mm 1 mps 668 mmHg 90%
    11:00 +24°C° 0.3 mm 2 mps 667 mmHg 85%
    12:00 +25°C° 0.3 mm 2 mps 667 mmHg 81%
    13:00 +26°C° 0.3 mm 2 mps 666 mmHg 77%
    14:00 +25°C° 0.4 mm 2 mps 666 mmHg 80%
    15:00 +25°C° 0.4 mm 2 mps 665 mmHg 83%
    16:00 +24°C° 0.4 mm 2 mps 665 mmHg 87%
    17:00 +23°C° 0.5 mm 2 mps 665 mmHg 90%
    18:00 +21°C° 0.5 mm 2 mps 665 mmHg 93%
    19:00 +21°C° 0.5 mm 1 mps 666 mmHg 96%
    20:00 +21°C° 0.2 mm 1 mps 666 mmHg 97%
    21:00 +20°C° 0.2 mm 1 mps 666 mmHg 97%
    22:00 +20°C° 0.2 mm 1 mps 667 mmHg 97%
    23:00 +20°C° 0.1 mm 1 mps 666 mmHg 98%

    17 December, Monday

    Time Temperature Precipitation Wind Pressure Humidity
    00:00 +20°C° 0.1 mm 1 mps 666 mmHg 98%
    01:00 +20°C° 0.1 mm 1 mps 665 mmHg 98%
    02:00 +19°C° 0.1 mm 1 mps 665 mmHg 98%
    03:00 +19°C° 0.1 mm 1 mps 665 mmHg 98%
    04:00 +19°C° 0.1 mm 1 mps 665 mmHg 99%
    05:00 +20°C° 0.1 mm 1 mps 666 mmHg 98%
    06:00 +20°C° 0.1 mm 1 mps 666 mmHg 98%
    07:00 +19°C° 0.1 mm 2 mps 667 mmHg 98%
    08:00 +20°C° 0 mm 2 mps 667 mmHg 94%
    09:00 +21°C° 0 mm 2 mps 667 mmHg 90%
    10:00 +23°C° 0 mm 2 mps 668 mmHg 87%
    11:00 +24°C° 0.1 mm 2 mps 667 mmHg 83%
    12:00 +25°C° 0.1 mm 2 mps 666 mmHg 79%
    13:00 +25°C° 0.1 mm 2 mps 666 mmHg 76%
    14:00 +25°C° 0.5 mm 2 mps 665 mmHg 79%
    15:00 +25°C° 0.5 mm 2 mps 665 mmHg 83%
    16:00 +25°C° 0.5 mm 2 mps 665 mmHg 86%
    17:00 +23°C° 0.4 mm 2 mps 665 mmHg 89%
    18:00 +22°C° 0.4 mm 1 mps 665 mmHg 92%
    19:00 +21°C° 0.4 mm 1 mps 665 mmHg 95%
    20:00 +21°C° 0 mm 1 mps 666 mmHg 96%
    21:00 +20°C° 0 mm 1 mps 666 mmHg 96%
    22:00 +20°C° 0 mm 1 mps 667 mmHg 96%
    23:00 +20°C° 0 mm 1 mps 666 mmHg 96%

    18 December, Tuesday

    Time Temperature Precipitation Wind Pressure Humidity
    00:00 +20°C° 0 mm 1 mps 666 mmHg 96%
    01:00 +19°C° 0 mm 1 mps 665 mmHg 96%
    02:00 +19°C° 0 mm 1 mps 665 mmHg 96%
    03:00 +19°C° 0 mm 1 mps 665 mmHg 97%
    04:00 +19°C° 0 mm 1 mps 665 mmHg 97%
    05:00 +19°C° 0 mm 1 mps 666 mmHg 96%
    06:00 +20°C° 0 mm 1 mps 666 mmHg 96%
    07:00 +20°C° 0 mm 1 mps 667 mmHg 95%
    08:00 +21°C° 0 mm 1 mps 667 mmHg 91%
    09:00 +22°C° 0 mm 1 mps 667 mmHg 87%
    10:00 +24°C° 0 mm 1 mps 667 mmHg 83%
    11:00 +24°C° 0.1 mm 1 mps 667 mmHg 78%
    12:00 +25°C° 0.1 mm 1 mps 666 mmHg 74%
    13:00 +26°C° 0.1 mm 2 mps 666 mmHg 69%
    14:00 +26°C° 0.3 mm 2 mps 665 mmHg 72%
    15:00 +26°C° 0.3 mm 2 mps 665 mmHg 75%
    16:00 +26°C° 0.3 mm 1 mps 664 mmHg 78%
    17:00 +24°C° 0.2 mm 1 mps 665 mmHg 81%
    18:00 +23°C° 0.2 mm 1 mps 665 mmHg 84%
    19:00 +22°C° 0.2 mm 1 mps 665 mmHg 87%
    20:00 +21°C° 0.1 mm 1 mps 665 mmHg 88%
    21:00 +21°C° 0.1 mm 1 mps 666 mmHg 90%
    22:00 +20°C° 0.1 mm 1 mps 666 mmHg 91%
    23:00 +20°C° 0.4 mm 1 mps 666 mmHg 93%

    19 December, Wednesday

    Time Temperature Precipitation Wind Pressure Humidity
    00:00 +19°C° 0.4 mm 2 mps 665 mmHg 95%
    01:00 +19°C° 0.4 mm 2 mps 665 mmHg 97%
    02:00 +19°C° 0.1 mm 2 mps 665 mmHg 97%
    03:00 +19°C° 0.1 mm 2 mps 665 mmHg 98%
    04:00 +19°C° 0.1 mm 2 mps 665 mmHg 98%
    05:00 +19°C° 0.1 mm 2 mps 665 mmHg 97%
    06:00 +19°C° 0.1 mm 2 mps 666 mmHg 97%
    07:00 +19°C° 0.1 mm 2 mps 666 mmHg 96%
    08:00 +21°C° 0.1 mm 1 mps 666 mmHg 94%
    09:00 +21°C° 0.1 mm 1 mps 666 mmHg 91%
    10:00 +22°C° 0.1 mm 1 mps 666 mmHg 89%
    11:00 +23°C° 0.1 mm 1 mps 666 mmHg 85%
    12:00 +24°C° 0.1 mm 2 mps 665 mmHg 80%
    13:00 +25°C° 0.1 mm 2 mps 665 mmHg 76%
    14:00 +25°C° 0.7 mm 2 mps 665 mmHg 79%
    15:00 +25°C° 0.7 mm 2 mps 664 mmHg 83%
    16:00 +25°C° 0.7 mm 2 mps 664 mmHg 86%
    17:00 +24°C° 0.3 mm 2 mps 664 mmHg 89%
    18:00 +22°C° 0.3 mm 1 mps 664 mmHg 91%
    19:00 +21°C° 0.3 mm 1 mps 665 mmHg 94%
    20:00 +21°C° 0.1 mm 1 mps 665 mmHg 94%
    21:00 +20°C° 0.1 mm 2 mps 665 mmHg 94%
    22:00 +19°C° 0.1 mm 2 mps 665 mmHg 93%
    23:00 +19°C° 0 mm 2 mps 665 mmHg 94%
    Show more